BEIDOU-3 G3 (PRN 143)

Last updated on Wed Nov 05 2025 00:03:27 GMT+0000 (Coordinated Universal Time)

1 45807U 20040A 25307.70808616 -.00000340 00000+0 00000+0 0 9999 2 45807 1.8929 66.1728 0004456 307.5513 34.9939 1.00270957 19804
UTC large
Height (km)
Speed (km/s)
/
Latitude / Longitude
Inclination (degrees)
Orbital Period (minutes)
Azimuth
Elevation
Range (km)
Doppler Factor

Next 0 passes for location: London (51.5072 / 0.1276)

Sorry there are no passes over London.